Bellaire, MI

12:38 AM EST on January 19, 2017 (GMT -0500)
Antrim County

Weather History for KACB - August, 2014

Change the Weather History Date:

Saturday, August 23, 2014

  Actual Average (KCVX) Record (KCVX)
Temperature  
Mean Temperature 72 °F -  
Max Temperature 84 °F 76 °F 86 °F (2012)
Min Temperature 61 °F 60 °F 51 °F (2003)
Cooling Degree Days 8    
Growing Degree Days 22 (Base 50)    
Moisture  
Dew Point 63 °F    
Average Humidity 72    
Maximum Humidity 96    
Minimum Humidity 43    
Precipitation  
Precipitation 0.00 in - - ()
Sea Level Pressure  
Sea Level Pressure 30.05 in    
Wind  
Wind Speed 2 mph (East)    
Max Wind Speed 10 mph    
Max Gust Speed -    
Visibility 9 miles    
Events      
Averages and records for this station are not official NWS values.
T = Trace of Precipitation, MM = Missing Value Source: NWS Daily Summary

Daily Weather History Graph

Daily Weather History Graph

Search for Another Location

Airport or City:

Trip Planner

Search our weather history database for the weather conditions in past years. The results will help you decide how hot, cold, wet, or windy it might be!

Date:

Astronomy

Aug. 23, 2014 Rise Set
Actual Time 6:52 AM EDT 8:33 PM EDT
Civil Twilight 6:20 AM EDT 9:04 PM EDT
Nautical Twilight 5:43 AM EDT 9:42 PM EDT
Astronomical Twilight 5:02 AM EDT 10:23 PM EDT
Moon 5:05 AM EDT (8/23) 7:18 PM EDT (8/23)
Length of Visible Light 14h 43m
Length of Day
13h 41m
Waning Crescent, 3% of the Moon is Illuminated
Aug 23
Waning Crescent
Aug 25
New
Sep 2
First Quarter
Sep 8
Full
Sep 15
Last Quarter

Hourly Weather History & Observations

Time (EDT) Temp. Heat Index Dew Point Humidity Pressure Visibility Wind Dir Wind Speed Gust Speed Precip Events Conditions
12:12 AM 71.1 °F - 65.5 °F 82% 30.03 in 10.0 mi Calm Calm - N/A   Overcast
12:33 AM 69.6 °F - 64.9 °F 85% 30.03 in 10.0 mi Calm Calm - N/A   Mostly Cloudy
12:53 AM 67.6 °F - 64.8 °F 90% 30.03 in 10.0 mi Calm Calm - N/A   Scattered Clouds
1:12 AM 68.2 °F - 65.1 °F 90% 30.03 in 10.0 mi Calm Calm - N/A   Mostly Cloudy
1:33 AM 67.1 °F - 64.6 °F 92% 30.03 in 10.0 mi Calm Calm - N/A   Mostly Cloudy
1:52 AM 67.1 °F - 64.6 °F 92% 30.03 in 10.0 mi Calm Calm - N/A   Clear
2:12 AM 64.8 °F - 62.8 °F 93% 30.04 in 7.0 mi NE 3.5 mph - N/A   Scattered Clouds
2:33 AM 65.3 °F - 63.5 °F 94% 30.04 in 7.0 mi Calm Calm - N/A   Mostly Cloudy
2:52 AM 65.5 °F - 63.7 °F 94% 30.04 in 10.0 mi Calm Calm - N/A   Overcast
3:12 AM 65.3 °F - 63.5 °F 94% 30.04 in 7.0 mi Calm Calm - N/A   Overcast
3:33 AM 66.6 °F - 64.8 °F 94% 30.04 in 10.0 mi Calm Calm - N/A   Overcast
3:52 AM 66.7 °F - 64.0 °F 91% 30.04 in 10.0 mi Calm Calm - N/A   Overcast
4:12 AM 65.3 °F - 63.5 °F 94% 30.05 in 7.0 mi Calm Calm - N/A   Mostly Cloudy
4:33 AM 64.6 °F - 62.8 °F 94% 30.04 in 7.0 mi Calm Calm - N/A   Overcast
5:13 AM 63.9 °F - 62.4 °F 95% 30.04 in 7.0 mi Calm Calm - N/A   Scattered Clouds
5:33 AM 62.2 °F - 60.6 °F 94% 30.05 in 2.5 mi Calm Calm - N/A   Clear
5:52 AM 62.8 °F - 61.2 °F 94% 30.05 in 1.8 mi Calm Calm - N/A   Mist
6:13 AM 62.2 °F - 61.0 °F 96% 30.05 in 3.0 mi Calm Calm - N/A   Scattered Clouds
6:33 AM 61.7 °F - 60.3 °F 95% 30.06 in 5.0 mi Calm Calm - N/A   Scattered Clouds
7:13 AM 61.3 °F - 60.1 °F 96% 30.06 in 1.8 mi Calm Calm - N/A   Overcast
7:33 AM 62.6 °F - 61.3 °F 96% 30.06 in 4.0 mi Calm Calm - N/A   Mostly Cloudy
8:13 AM 67.1 °F - 63.9 °F 89% 30.06 in 10.0 mi Calm Calm - N/A   Mostly Cloudy
8:33 AM 68.9 °F - 63.5 °F 83% 30.06 in 10.0 mi Calm Calm - N/A   Scattered Clouds
8:52 AM 70.2 °F - 62.6 °F 77% 30.06 in 10.0 mi Calm Calm - N/A   Clear
9:13 AM 71.4 °F - 62.6 °F 74% 30.06 in 10.0 mi ENE 3.5 mph - N/A   Clear
9:32 AM 72.0 °F - 62.6 °F 72% 30.06 in 10.0 mi ENE 3.5 mph - N/A   Clear
9:53 AM 73.4 °F - 62.8 °F 69% 30.06 in 10.0 mi East 3.5 mph - N/A   Clear
10:13 AM 75.0 °F - 62.8 °F 66% 30.06 in 10.0 mi ENE 4.6 mph - N/A   Clear
10:32 AM 76.1 °F - 62.4 °F 62% 30.06 in 10.0 mi East 4.6 mph - N/A   Clear
10:53 AM 77.4 °F - 62.2 °F 59% 30.08 in 10.0 mi Calm Calm - N/A   Scattered Clouds
11:13 AM 78.1 °F - 62.2 °F 58% 30.08 in 10.0 mi Calm Calm - N/A   Scattered Clouds
11:32 AM 78.6 °F - 62.4 °F 57% 30.07 in 10.0 mi ESE 6.9 mph - N/A   Scattered Clouds
11:53 AM 80.1 °F 81.1 °F 61.5 °F 53% 30.07 in 10.0 mi ESE 6.9 mph - N/A   Clear
12:13 PM 80.8 °F 81.6 °F 61.0 °F 51% 30.07 in 10.0 mi East 3.5 mph - N/A   Clear
12:32 PM 81.0 °F 81.8 °F 61.3 °F 51% 30.07 in 10.0 mi ENE 5.8 mph - N/A   Clear
12:53 PM 81.3 °F 82.1 °F 61.2 °F 50% 30.07 in 10.0 mi East 6.9 mph - N/A   Clear
1:13 PM 81.5 °F 82.1 °F 60.8 °F 49% 30.06 in 10.0 mi NE 8.1 mph - N/A   Clear
1:32 PM 81.7 °F 82.2 °F 60.1 °F 48% 30.06 in 10.0 mi East 5.8 mph - N/A   Clear
1:53 PM 82.4 °F 83.0 °F 61.5 °F 49% 30.06 in 10.0 mi East 9.2 mph - N/A   Clear
2:12 PM 83.5 °F 83.7 °F 60.6 °F 46% 30.06 in 10.0 mi SE 8.1 mph - N/A   Clear
2:33 PM 83.7 °F 83.8 °F 60.4 °F 45% 30.06 in 10.0 mi ESE 3.5 mph - N/A   Clear
2:53 PM 84.0 °F 83.8 °F 59.5 °F 43% 30.06 in 10.0 mi SE 8.1 mph - N/A   Scattered Clouds
3:13 PM 84.4 °F 84.6 °F 60.6 °F 45% 30.06 in 10.0 mi SE 10.4 mph - N/A   Scattered Clouds
3:33 PM 83.8 °F 83.8 °F 59.9 °F 44% 30.05 in 10.0 mi SE 4.6 mph - N/A   Scattered Clouds
3:53 PM 84.0 °F 84.0 °F 60.1 °F 44% 30.05 in 10.0 mi East 5.8 mph - N/A   Clear
4:12 PM 84.4 °F 84.6 °F 60.6 °F 45% 30.05 in 10.0 mi ENE 8.1 mph - N/A   Scattered Clouds
4:33 PM 84.0 °F 84.5 °F 61.5 °F 47% 30.04 in 10.0 mi ESE 6.9 mph - N/A   Scattered Clouds
4:53 PM 84.0 °F 84.4 °F 61.2 °F 46% 30.04 in 10.0 mi ENE 6.9 mph - N/A   Clear
5:12 PM 83.5 °F 84.1 °F 61.9 °F 48% 30.04 in 10.0 mi ENE 6.9 mph - N/A   Scattered Clouds
5:33 PM 82.9 °F 83.5 °F 61.5 °F 48% 30.04 in 10.0 mi East 4.6 mph - N/A   Scattered Clouds
5:53 PM 82.6 °F 83.2 °F 61.7 °F 49% 30.04 in 10.0 mi East 3.5 mph - N/A   Scattered Clouds
6:12 PM 81.9 °F 82.8 °F 61.9 °F 51% 30.03 in 10.0 mi East 4.6 mph - N/A   Clear
6:33 PM 80.8 °F 81.9 °F 62.2 °F 53% 30.04 in 10.0 mi ESE 3.5 mph - N/A   Clear
6:53 PM 79.7 °F - 63.3 °F 57% 30.03 in 10.0 mi Calm Calm - N/A   Scattered Clouds
7:13 PM 78.4 °F - 63.7 °F 60% 30.03 in 10.0 mi East 3.5 mph - N/A   Scattered Clouds
7:33 PM 77.5 °F - 64.2 °F 63% 30.03 in 10.0 mi Calm Calm - N/A   Scattered Clouds
7:53 PM 76.8 °F - 64.4 °F 65% 30.04 in 10.0 mi East 3.5 mph - N/A   Clear
8:13 PM 76.1 °F - 64.0 °F 66% 30.04 in 10.0 mi East 3.5 mph - N/A   Clear
8:33 PM 75.4 °F - 63.9 °F 67% 30.05 in 10.0 mi Calm Calm - N/A   Clear
8:53 PM 73.9 °F - 64.4 °F 72% 30.05 in 10.0 mi Calm Calm - N/A   Clear
9:13 PM 71.1 °F - 64.4 °F 79% 30.06 in 10.0 mi Calm Calm - N/A   Clear
9:33 PM 69.3 °F - 64.4 °F 84% 30.07 in 10.0 mi Calm Calm - N/A   Clear
9:53 PM 69.1 °F - 64.0 °F 84% 30.08 in 10.0 mi Calm Calm - N/A   Clear
10:13 PM 67.6 °F - 64.0 °F 88% 30.08 in 10.0 mi Calm Calm - N/A   Clear
10:33 PM 67.1 °F - 63.9 °F 89% 30.08 in 10.0 mi Calm Calm - N/A   Clear
10:53 PM 66.4 °F - 63.5 °F 90% 30.09 in 10.0 mi Calm Calm - N/A   Clear
11:13 PM 66.6 °F - 63.5 °F 90% 30.09 in 10.0 mi Calm Calm - N/A   Clear
11:33 PM 67.1 °F - 63.1 °F 87% 30.09 in 10.0 mi Calm Calm - N/A   Clear
11:52 PM 65.7 °F - 63.0 °F 91% 30.09 in 10.0 mi Calm Calm - N/A   Clear